Location: Noyers
(47.2770°N, 1.4032°E)
Time: 23:31:35
(UTC+00:00)

CZ-4B R/B - Pass Details

Date: 15 May 2026
Orbit: 442 x 557 km, 97.8° (Epoch: 11 June)

Event Time Altitude Azimuth Distance (km) Brightness Sun altitude
Exits shadow 20:50:38 21° 133° (SE) 1,072 3.7 -12.3°
Maximum altitude 20:52:32 43° 71° (ENE) 658 3.0 -12.6°
Drops below altitude 10° 20:55:51 10° 359° (N) 1,631 6.0 -12.9°
Sets 20:58:00 0° 353° (N) 2,532 7.2 -13.2°
